Regional Weather Roundup
Issued by NWS Sioux Falls, SD

Home | Current Version | Previous Version | Graphics & Text | Print | Product List | Glossary Off
Versions: 1 2 3 4 5 6 7 8 9 10 11 12 13 14 15 16 17 18 19 20 21 22 23 24 25 26 27 28 29 30 31 32 33 34 35 36 37 38 39 40 41 42 43 44 45 46 47 48 49 50

000
ASUS43 KFSD 250410
RWRFSD

WEATHER ROUNDUP FOR SE SOUTH DAKOTA/SW MINNESOTA/NW IOWA
NATIONAL WEATHER SERVICE SIOUX FALLS SD
1100 PM CDT SAT JUN 24 2017

NOTE: "FAIR" INDICATES FEW OR NO CLOUDS BELOW 12,000 FEET WITH NO
SIGNIFICANT WEATHER AND OR OBSTRUCTIONS TO VISIBILITY.


SDZ038>040-050-052>070-250500-
SOUTHEAST SOUTH DAKOTA

CITY           SKY/WX    TMP DP  RH WIND       PRES   REMARKS
BROOKINGS      CLOUDY    57  44  62 NW13      30.21R
CHAMBERLAIN    CLEAR     59  41  51 N7        30.27R
HURON          PTCLDY    52  45  77 N5        30.24R
MADISON        FAIR      52  45  76 NW9       30.23R
MITCHELL       CLEAR     56  43  61 N8        30.24R
SIOUX FALLS    PTCLDY    56  44  64 N10       30.21R
WINNER         FAIR      56  37  49 NE6       30.28R
YANKTON        CLEAR     56  41  57 N6        30.22R
$$

MNZ071-072-080-081-089-090-097-098-250500-
SOUTHWEST MINNESOTA

CITY           SKY/WX    TMP DP  RH WIND       PRES   REMARKS
FAIRMONT       CLEAR     54  43  66 NW9       30.15R
JACKSON        MOCLDY    54  41  62 CALM      30.17R
LUVERNE        CLEAR     54  39  58 NW7       30.21R
MARSHALL       CLOUDY    59  44  57 NW14      30.18R
MONTEVIDEO     CLOUDY    57  46  67 N9        30.16R
PIPESTONE      MOCLDY    57  43  58 N14G20    30.20R
REDWOOD FALLS  PTCLDY    57  43  59 NW13      30.14R
TRACY          MOCLDY    59  45  60 NW12G18   30.17R
WINDOM         PTCLDY    55  41  58 NW7       30.16R
WORTHINGTON    CLEAR     50  42  74 NW8       30.19R
$$

IAZ001>003-012>014-020>022-031-032-NEZ013-014-SDZ071-250500-
NORTHWEST IOWA

CITY           SKY/WX    TMP DP  RH WIND       PRES   REMARKS
CHEROKEE       CLEAR     56  43  61 NW6       30.18R
DENISON        CLEAR     57  41  54 CALM      30.20R
ESTHERVILLE    CLEAR     53  43  68 NW8       30.15R
LE MARS        CLEAR     55  41  58 N5        30.20R
ORANGE CITY    CLEAR     59  43  55 N8        30.19R
SHELDON        CLEAR     54  41  62 NW8       30.18R
SIOUX CITY     CLEAR     58  42  55 NW7       30.20R
SPENCER        CLEAR     52  43  71 NW5       30.17R
STORM LAKE     CLEAR     59  41  51 NW8       30.18R
$$

ABBREVIATIONS USED IN REMARKS
   TC - TEMPERATURE IN CELSIUS
  WCI - WIND CHILL INDEX
   HX - HEAT INDEX
  VSB - VISIBILITY





USA.gov is the U.S. government's official web portal to all federal, state and local government web resources and services.